Regional Weather Roundup
Issued by NWS Glasgow, MT

Home | Current Version | Previous Version | Text Only | Print | Product List | Glossary On
Versions: 1 2 3 4 5 6 7 8 9 10 11 12 13 14 15 16 17 18 19 20 21 22 23 24 25 26 27 28 29 30 31 32 33 34 35 36 37 38 39 40 41 42 43 44 45 46 47 48 49 50
000
ASUS45 KGGW 161815
RWRGGW
HOURLY WEATHER ROUNDUP FOR NORTHEAST MONTANA
NATIONAL WEATHER SERVICE GLASGOW MONTANA
1200 PM MDT TUE SEP 16 2014

NOTE: "FAIR" INDICATES FEW OR NO CLOUDS BELOW 12,000 FEET WITH NO
SIGNIFICANT WEATHER AND/OR OBSTRUCTIONS TO VISISBILITY.

NORTHEAST MONTANA


CITY           SKY/WX    TMP DP  RH WIND       PRES   REMARKS
GLASGOW        MOSUNNY   68  41  37 SE8       29.97F
6HR MIN TEMP:  44; 6HR MAX TEMP:  68;

PLENTYWOOD       N/A     72  34  24 SW3         N/A
WOLF POINT     SUNNY     70  40  33 VRB5      29.98F
JORDAN           N/A     68  47  46 SE3       29.97F
WINNETT          N/A     70  46  42 E2          N/A
SIDNEY         SUNNY     66  41  39 CALM      30.00S
GLENDIVE       SUNNY     66  46  48 CALM      30.00F
MALTA            N/A     70  51  51 CALM        N/A
SCOBEY           N/A     69  37  30 S5        29.97F

FORT PECK REPORTS


CITY           SKY/WX    TMP DP  RH WIND       PRES   REMARKS
FORT PECK        N/A     66  47  50 S3          N/A
THE PINES        N/A     70  45  40 CALM        N/A

SOUTHEAST MONTANA


CITY           SKY/WX    TMP DP  RH WIND       PRES   REMARKS
BILLINGS       PTSUNNY   74  44  34 SW15      30.01F
MILES CITY     MOSUNNY   67  48  50 CALM      29.99F
BAKER          SUNNY     73  47  39 VRB3      30.00F
LIVINGSTON     MOSUNNY   74  38  27 N13       30.07F

CENTRAL MONTANA


CITY           SKY/WX    TMP DP  RH WIND       PRES   REMARKS
HAVRE          MOSUNNY   67  45  45 CALM      29.95F
LEWISTOWN      MOSUNNY   75  39  27 CALM      30.02F
GREAT FALLS    MOSUNNY   72  39  30 SW7       29.99S
CUT BANK       MOSUNNY   71  38  29 VRB5      29.98F
HELENA         PTSUNNY   63  38  39 CALM      30.07F
BUTTE          PTSUNNY   64  37  36 CALM      30.15F
BOZEMAN        PTSUNNY   68  38  33 VRB3      30.09F

WESTERN MONTANA


CITY           SKY/WX    TMP DP  RH WIND       PRES   REMARKS
MISSOULA       PTSUNNY   63  37  38 SE5       30.04F
KALISPELL      NOT AVBL

NORTH DAKOTA


CITY           SKY/WX    TMP DP  RH WIND       PRES   REMARKS
WILLISTON      SUNNY     69  36  29 E3        29.99F
DICKINSON      SUNNY     69  48  47 NE5       29.97F
MINOT          SUNNY     69  43  38 NE7       29.98F
BISMARCK       SUNNY     67  46  47 SE3       30.00F

SOUTHERN SASKATCHEWAN


CITY           SKY/WX    TMP DP  RH WIND       PRES   REMARKS
REGINA         MOSUNNY   70  43  37 S7        29.95F
MOOSE JAW      MOSUNNY   70  45  40 W7        29.95F
ESTEVAN        MOSUNNY   70  41  35 W3        29.98F
SWIFT CURRENT  SUNNY     70  41  35 SW10      29.93F



USA.gov is the U.S. government's official web portal to all federal, state and local government web resources and services.